| time (UTC) | temp F | wind direction | speed MPH | gust MPH | rain 1hr in | rain 24hr in | rain mn in | humidity % | barometer mb |
| 20260507105007 | 64 | 59 | 6.0 | 10.0 | 0.00 | 0.00 | 0.00 | 64 | 1013.4 |
| 20260507104504 | 63 | 43 | 4.0 | 10.0 | 0.00 | 0.00 | 0.00 | 64 | 1013.4 |
| 20260507104004 | 63 | 75 | 4.0 | 11.0 | 0.00 | 0.00 | 0.00 | 62 | 1013.5 |
| 20260507103508 | 63 | 75 | 5.0 | 14.0 | 0.00 | 0.00 | 0.00 | 62 | 1013.5 |
| 20260507103003 | 63 | 83 | 3.0 | 14.0 | 0.00 | 0.00 | 0.00 | 62 | 1013.6 |
| 20260507102505 | 63 | 40 | 8.0 | 14.0 | 0.00 | 0.00 | 0.00 | 65 | 1013.6 |
| 20260507102006 | 62 | 81 | 5.0 | 12.0 | 0.00 | 0.00 | 0.00 | 62 | 1013.6 |
| 20260507101508 | 62 | 117 | 3.0 | 13.0 | 0.00 | 0.00 | 0.00 | 62 | 1013.7 |
| 20260507101004 | 62 | 79 | 7.0 | 13.0 | 0.00 | 0.00 | 0.00 | 65 | 1013.7 |
| 20260507100503 | 62 | 38 | 5.0 | 10.0 | 0.00 | 0.00 | 0.00 | 67 | 1013.7 |
| 20260507100030 | 62 | 90 | 4.0 | 9.0 | 0.00 | 0.00 | 0.00 | 64 | 1013.7 |
| 20260507095504 | 62 | 81 | 3.0 | 12.0 | 0.00 | 0.00 | 0.00 | 65 | 1013.7 |
| 20260507095003 | 62 | 85 | 3.0 | 12.0 | 0.00 | 0.00 | 0.00 | 67 | 1013.9 |
| 20260507094521 | 61 | 108 | 2.0 | 10.0 | 0.00 | 0.00 | 0.00 | 67 | 1013.8 |
| 20260507094007 | 61 | 64 | 3.0 | 11.0 | 0.00 | 0.00 | 0.00 | 67 | 1013.9 |
| 20260507093504 | 61 | 119 | 4.0 | 11.0 | 0.00 | 0.00 | 0.00 | 66 | 1013.9 |
| 20260507093027 | 61 | 123 | 4.0 | 11.0 | 0.00 | 0.00 | 0.00 | 67 | 1013.9 |
| 20260507092507 | 60 | 75 | 2.0 | 11.0 | 0.00 | 0.00 | 0.00 | 70 | 1014.0 |
| 20260507092007 | 60 | 109 | 4.0 | 11.0 | 0.00 | 0.00 | 0.00 | 72 | 1014.0 |
| 20260507091508 | 60 | 69 | 5.0 | 11.0 | 0.00 | 0.00 | 0.00 | 72 | 1013.9 |
| 20260507091008 | 60 | 102 | 7.0 | 14.0 | 0.00 | 0.00 | 0.00 | 70 | 1013.9 |
| 20260507090505 | 60 | 126 | 6.0 | 14.0 | 0.00 | 0.00 | 0.00 | 73 | 1013.9 |
| 20260507090007 | 59 | 69 | 7.0 | 13.0 | 0.00 | 0.00 | 0.00 | 73 | 1013.9 |
| 20260507085504 | 59 | 108 | 5.0 | 10.0 | 0.00 | 0.00 | 0.00 | 70 | 1014.0 |
| 20260507085009 | 59 | 117 | 3.0 | 11.0 | 0.00 | 0.00 | 0.00 | 72 | 1013.9 |
| 20260507084513 | 59 | 82 | 4.0 | 11.0 | 0.00 | 0.00 | 0.00 | 71 | 1013.9 |
| 20260507084004 | 59 | 112 | 3.0 | 11.0 | 0.00 | 0.00 | 0.00 | 72 | 1013.9 |
| 20260507083507 | 58 | 81 | 6.0 | 11.0 | 0.00 | 0.00 | 0.00 | 73 | 1013.9 |
| 20260507083033 | 58 | 140 | 4.0 | 9.0 | 0.00 | 0.00 | 0.00 | 70 | 1014.0 |
| 20260507082506 | 59 | 134 | 3.0 | 9.0 | 0.00 | 0.00 | 0.00 | 72 | 1014.1 |
| 20260507082007 | 59 | 90 | 5.0 | 9.0 | 0.00 | 0.00 | 0.00 | 70 | 1014.2 |
| 20260507081528 | 58 | 115 | 1.0 | 8.0 | 0.00 | 0.00 | 0.00 | 74 | 1014.1 |
| 20260507081007 | 58 | 111 | 2.0 | 8.0 | 0.00 | 0.00 | 0.00 | 72 | 1014.1 |
| 20260507080504 | 57 | 89 | 4.0 | 10.0 | 0.00 | 0.00 | 0.00 | 73 | 1014.2 |
| 20260507080017 | 57 | 93 | 3.0 | 10.0 | 0.00 | 0.00 | 0.00 | 72 | 1014.2 |
| 20260507075506 | 57 | 75 | 1.0 | 9.0 | 0.00 | 0.00 | 0.00 | 73 | 1014.2 |
| 20260507075011 | 57 | 116 | 4.0 | 9.0 | 0.00 | 0.00 | 0.00 | 73 | 1014.2 |
| 20260507074525 | 56 | 92 | 3.0 | 9.0 | 0.00 | 0.00 | 0.00 | 74 | 1014.2 |
| 20260507074007 | 56 | 106 | 2.0 | 7.0 | 0.00 | 0.00 | 0.00 | 75 | 1014.2 |
| 20260507073506 | 56 | 75 | 3.0 | 7.0 | 0.00 | 0.00 | 0.00 | 78 | 1014.2 |
| 20260507073008 | 55 | 89 | 1.0 | 6.0 | 0.00 | 0.00 | 0.00 | 80 | 1014.2 |
| 20260507072509 | 54 | 99 | 3.0 | 6.0 | 0.00 | 0.00 | 0.00 | 82 | 1014.2 |
| 20260507072006 | 53 | 201 | 0.0 | 0.0 | 0.00 | 0.00 | 0.00 | 85 | 1014.2 |
| 20260507071523 | 52 | 201 | 0.0 | 0.0 | 0.00 | 0.00 | 0.00 | 85 | 1014.2 |
| 20260507071008 | 52 | 201 | 0.0 | 0.0 | 0.00 | 0.00 | 0.00 | 85 | 1014.2 |
| 20260507070507 | 51 | 201 | 0.0 | 0.0 | 0.00 | 0.00 | 0.00 | 85 | 1014.3 |
| 20260507070026 | 51 | 201 | 0.0 | 0.0 | 0.00 | 0.00 | 0.00 | 85 | 1014.2 |
| 20260507065512 | 51 | 201 | 0.0 | 0.0 | 0.00 | 0.00 | 0.00 | 86 | 1014.2 |
| 20260507065008 | 51 | 201 | 0.0 | 0.0 | 0.00 | 0.00 | 0.00 | 86 | 1014.2 |
| 20260507064525 | 50 | 201 | 0.0 | 0.0 | 0.00 | 0.00 | 0.00 | 86 | 1014.2 |
| 20260507064007 | 50 | 201 | 0.0 | 0.0 | 0.00 | 0.00 | 0.00 | 87 | 1014.2 |
| 20260507063504 | 49 | 201 | 0.0 | 0.0 | 0.00 | 0.00 | 0.00 | 88 | 1014.3 |
| 20260507063015 | 48 | 201 | 0.0 | 0.0 | 0.00 | 0.00 | 0.00 | 89 | 1014.2 |
| 20260507062505 | 48 | 201 | 0.0 | 0.0 | 0.00 | 0.00 | 0.00 | 89 | 1014.3 |
| 20260507062008 | 47 | 201 | 0.0 | 0.0 | 0.00 | 0.00 | 0.00 | 89 | 1014.3 |
| 20260507061518 | 47 | 201 | 0.0 | 0.0 | 0.00 | 0.00 | 0.00 | 91 | 1014.3 |
| 20260507061010 | 46 | 201 | 0.0 | 0.0 | 0.00 | 0.00 | 0.00 | 91 | 1014.3 |
| 20260507060504 | 46 | 201 | 0.0 | 3.0 | 0.00 | 0.00 | 0.00 | 92 | 1014.3 |
| 20260507060004 | 46 | 201 | 0.0 | 3.0 | 0.00 | 0.00 | 0.00 | 93 | 1014.3 |
| 20260507055503 | 45 | 252 | 0.0 | 1.0 | 0.00 | 0.00 | 0.00 | 94 | 1014.3 |
| 20260507055002 | 45 | 252 | 0.0 | 1.0 | 0.00 | 0.00 | 0.00 | 95 | 1014.3 |
| 20260507054507 | 44 | 252 | 0.0 | 1.0 | 0.00 | 0.00 | 0.00 | 96 | 1014.2 |
| 20260507054004 | 44 | 255 | 0.0 | 1.0 | 0.00 | 0.00 | 0.00 | 96 | 1014.2 |
| 20260507053503 | 44 | 255 | 0.0 | 1.0 | 0.00 | 0.00 | 0.00 | 96 | 1014.1 |
| 20260507053008 | 43 | 256 | 0.0 | 1.0 | 0.00 | 0.00 | 0.00 | 95 | 1014.1 |
| 20260507052506 | 43 | 273 | 0.0 | 1.0 | 0.00 | 0.00 | 0.00 | 95 | 1014.0 |
| 20260507052003 | 43 | 273 | 0.0 | 1.0 | 0.00 | 0.00 | 0.00 | 95 | 1014.0 |
| 20260507051504 | 43 | 273 | 0.0 | 1.0 | 0.00 | 0.00 | 0.00 | 95 | 1014.0 |
| 20260507051010 | 43 | 273 | 0.0 | 1.0 | 0.00 | 0.00 | 0.00 | 95 | 1013.9 |
| 20260507050504 | 43 | 273 | 0.0 | 1.0 | 0.00 | 0.00 | 0.00 | 96 | 1013.9 |
| 20260507050004 | 43 | 273 | 0.0 | 0.0 | 0.00 | 0.00 | 0.00 | 96 | 1013.8 |
| 20260507045503 | 43 | 273 | 0.0 | 0.0 | 0.00 | 0.00 | 0.00 | 95 | 1013.8 |
| 20260507045004 | 43 | 274 | 0.0 | 0.0 | 0.00 | 0.00 | 0.00 | 95 | 1013.8 |
| 20260507044505 | 43 | 274 | 0.0 | 1.0 | 0.00 | 0.00 | 0.00 | 95 | 1013.8 |
| 20260507044009 | 43 | 274 | 0.0 | 1.0 | 0.00 | 0.00 | 0.00 | 95 | 1013.7 |
| 20260507043503 | 43 | 273 | 0.0 | 1.0 | 0.00 | 0.00 | 0.00 | 95 | 1013.8 |
| 20260507043008 | 44 | 273 | 0.0 | 0.0 | 0.00 | 0.00 | 0.00 | 95 | 1013.7 |
| 20260507042503 | 44 | 274 | 0.0 | 0.0 | 0.00 | 0.00 | 0.00 | 95 | 1013.8 |
| 20260507042004 | 44 | 273 | 0.0 | 0.0 | 0.00 | 0.00 | 0.00 | 95 | 1013.8 |
| 20260507041528 | 44 | 273 | 0.0 | 1.0 | 0.00 | 0.00 | 0.00 | 95 | 1013.8 |
| 20260507041007 | 44 | 274 | 0.0 | 1.0 | 0.00 | 0.00 | 0.00 | 95 | 1013.8 |
| 20260507040504 | 44 | 274 | 0.0 | 1.0 | 0.00 | 0.00 | 0.00 | 95 | 1013.9 |
| 20260507040013 | 44 | 273 | 0.0 | 1.0 | 0.00 | 0.00 | 0.00 | 95 | 1013.9 |
| 20260507035507 | 44 | 274 | 0.0 | 1.0 | 0.00 | 0.00 | 0.00 | 95 | 1013.8 |
| 20260507035003 | 44 | 273 | 0.0 | 0.0 | 0.00 | 0.00 | 0.00 | 95 | 1013.9 |
| 20260507034506 | 44 | 273 | 0.0 | 0.0 | 0.00 | 0.00 | 0.00 | 95 | 1013.8 |
| 20260507034003 | 44 | 273 | 0.0 | 2.0 | 0.00 | 0.00 | 0.00 | 95 | 1013.8 |
| 20260507033502 | 44 | 273 | 0.0 | 2.0 | 0.00 | 0.00 | 0.00 | 95 | 1013.8 |
| 20260507033006 | 44 | 277 | 0.0 | 1.0 | 0.00 | 0.00 | 0.00 | 95 | 1013.8 |
| 20260507032504 | 44 | 277 | 0.0 | 1.0 | 0.00 | 0.00 | 0.00 | 95 | 1013.9 |
| 20260507032005 | 44 | 277 | 0.0 | 1.0 | 0.00 | 0.00 | 0.00 | 95 | 1013.8 |
| 20260507031512 | 44 | 277 | 0.0 | 2.0 | 0.00 | 0.00 | 0.00 | 95 | 1013.8 |
| 20260507031005 | 44 | 277 | 0.0 | 2.0 | 0.00 | 0.00 | 0.00 | 94 | 1013.9 |
| 20260507030505 | 45 | 277 | 0.0 | 2.0 | 0.00 | 0.00 | 0.00 | 94 | 1013.9 |
| 20260507030018 | 45 | 277 | 0.0 | 2.0 | 0.00 | 0.00 | 0.00 | 95 | 1013.9 |
| 20260507025502 | 45 | 277 | 0.0 | 2.0 | 0.00 | 0.00 | 0.00 | 95 | 1013.9 |
| 20260507025006 | 45 | 277 | 0.0 | 2.0 | 0.00 | 0.00 | 0.00 | 95 | 1013.8 |
| 20260507024520 | 45 | 277 | 0.0 | 1.0 | 0.00 | 0.00 | 0.00 | 95 | 1013.9 |
| 20260507024008 | 45 | 277 | 0.0 | 1.0 | 0.00 | 0.00 | 0.00 | 94 | 1013.9 |
| 20260507023502 | 45 | 277 | 0.0 | 1.0 | 0.00 | 0.00 | 0.00 | 94 | 1014.0 |
| 20260507023004 | 45 | 277 | 0.0 | 1.0 | 0.00 | 0.00 | 0.00 | 94 | 1014.0 |
| 20260507022502 | 45 | 277 | 0.0 | 0.0 | 0.00 | 0.00 | 0.00 | 94 | 1014.0 |
| 20260507022002 | 45 | 277 | 0.0 | 0.0 | 0.00 | 0.00 | 0.00 | 94 | 1014.1 |
| 20260507021511 | 45 | 277 | 0.0 | 1.0 | 0.00 | 0.00 | 0.00 | 94 | 1014.1 |
| 20260507021007 | 45 | 277 | 0.0 | 2.0 | 0.00 | 0.00 | 0.00 | 94 | 1014.1 |
| 20260507020506 | 45 | 277 | 0.0 | 3.0 | 0.00 | 0.00 | 0.00 | 94 | 1014.1 |
| 20260507020007 | 46 | 277 | 0.0 | 3.0 | 0.00 | 0.00 | 0.00 | 95 | 1014.1 |
| 20260507015508 | 45 | 279 | 1.0 | 3.0 | 0.00 | 0.00 | 0.00 | 95 | 1014.2 |
| 20260507015006 | 45 | 280 | 0.0 | 1.0 | 0.00 | 0.00 | 0.00 | 94 | 1014.1 |
| 20260507014520 | 45 | 280 | 0.0 | 1.0 | 0.00 | 0.00 | 0.00 | 94 | 1014.1 |
| 20260507014002 | 46 | 280 | 0.0 | 0.0 | 0.00 | 0.00 | 0.00 | 94 | 1014.2 |
| 20260507013506 | 46 | 280 | 0.0 | 1.0 | 0.00 | 0.00 | 0.00 | 94 | 1014.3 |
| 20260507013032 | 46 | 280 | 0.0 | 1.0 | 0.00 | 0.00 | 0.00 | 95 | 1014.3 |
| 20260507012503 | 46 | 280 | 0.0 | 1.0 | 0.00 | 0.00 | 0.00 | 94 | 1014.3 |
| 20260507012007 | 45 | 280 | 0.0 | 0.0 | 0.00 | 0.00 | 0.00 | 94 | 1014.3 |
| 20260507011535 | 46 | 280 | 0.0 | 1.0 | 0.00 | 0.00 | 0.00 | 94 | 1014.4 |
| 20260507011005 | 46 | 280 | 0.0 | 1.0 | 0.00 | 0.00 | 0.00 | 94 | 1014.4 |
| 20260507010505 | 46 | 280 | 0.0 | 2.0 | 0.00 | 0.00 | 0.00 | 94 | 1014.5 |
| 20260507010010 | 46 | 281 | 0.0 | 2.0 | 0.00 | 0.00 | 0.00 | 94 | 1014.5 |
| 20260507005507 | 46 | 285 | 0.0 | 2.0 | 0.00 | 0.00 | 0.00 | 94 | 1014.6 |
| 20260507005006 | 46 | 294 | 0.0 | 1.0 | 0.00 | 0.00 | 0.00 | 94 | 1014.7 |
| 20260507004518 | 46 | 294 | 0.0 | 1.0 | 0.00 | 0.00 | 0.00 | 94 | 1014.8 |
| 20260507004006 | 46 | 294 | 0.0 | 1.0 | 0.00 | 0.00 | 0.00 | 94 | 1014.8 |
| 20260507003507 | 46 | 294 | 0.0 | 2.0 | 0.00 | 0.00 | 0.00 | 94 | 1014.9 |
| 20260507003018 | 46 | 294 | 0.0 | 2.0 | 0.00 | 0.00 | 0.00 | 94 | 1014.9 |
| 20260507002507 | 46 | 296 | 0.0 | 1.0 | 0.00 | 0.00 | 0.00 | 94 | 1014.9 |
| 20260507002009 | 46 | 296 | 0.0 | 0.0 | 0.00 | 0.00 | 0.00 | 93 | 1015.0 |
| 20260507001529 | 46 | 296 | 0.0 | 1.0 | 0.00 | 0.00 | 0.00 | 93 | 1015.0 |
| 20260507001008 | 46 | 296 | 0.0 | 1.0 | 0.00 | 0.00 | 0.00 | 93 | 1015.1 |
| 20260507000514 | 46 | 296 | 0.0 | 1.0 | 0.00 | 0.00 | 0.00 | 93 | 1015.1 |
| 20260507000026 | 47 | 296 | 0.0 | 1.0 | 0.00 | 0.00 | 0.00 | 93 | 1015.1 |
| 20260506235504 | 47 | 296 | 0.0 | 1.0 | 0.00 | 0.00 | 0.00 | 94 | 1015.1 |
| 20260506235006 | 47 | 296 | 0.0 | 1.0 | 0.00 | 0.00 | 0.00 | 94 | 1015.1 |
| 20260506234513 | 47 | 296 | 0.0 | 1.0 | 0.00 | 0.00 | 0.00 | 94 | 1015.1 |
| 20260506234006 | 47 | 296 | 0.0 | 1.0 | 0.00 | 0.00 | 0.00 | 94 | 1015.1 |
| 20260506233507 | 47 | 296 | 0.0 | 2.0 | 0.00 | 0.00 | 0.00 | 94 | 1015.1 |
| 20260506233020 | 47 | 296 | 0.0 | 2.0 | 0.00 | 0.00 | 0.00 | 93 | 1015.2 |
| 20260506232507 | 47 | 298 | 0.0 | 2.0 | 0.00 | 0.00 | 0.00 | 93 | 1015.2 |
| 20260506232011 | 47 | 299 | 0.0 | 0.0 | 0.00 | 0.00 | 0.00 | 92 | 1015.2 |
| 20260506231519 | 47 | 299 | 0.0 | 0.0 | 0.00 | 0.00 | 0.00 | 92 | 1015.2 |
| 20260506231009 | 47 | 299 | 0.0 | 0.0 | 0.00 | 0.00 | 0.00 | 92 | 1015.2 |
| 20260506230506 | 48 | 299 | 0.0 | 1.0 | 0.00 | 0.00 | 0.00 | 92 | 1015.2 |
| 20260506230026 | 48 | 299 | 0.0 | 1.0 | 0.00 | 0.00 | 0.00 | 92 | 1015.2 |
| 20260506225507 | 48 | 298 | 0.0 | 0.0 | 0.00 | 0.00 | 0.00 | 92 | 1015.3 |
| 20260506225010 | 48 | 298 | 0.0 | 0.0 | 0.00 | 0.00 | 0.00 | 93 | 1015.3 |
| 20260506224530 | 48 | 298 | 0.0 | 0.0 | 0.00 | 0.00 | 0.00 | 93 | 1015.3 |
| 20260506224009 | 48 | 298 | 0.0 | 0.0 | 0.00 | 0.00 | 0.00 | 93 | 1015.3 |
| 20260506223503 | 48 | 298 | 0.0 | 0.0 | 0.00 | 0.00 | 0.00 | 92 | 1015.3 |
| 20260506223016 | 48 | 298 | 0.0 | 0.0 | 0.00 | 0.00 | 0.00 | 92 | 1015.3 |
| 20260506222504 | 49 | 298 | 0.0 | 1.0 | 0.00 | 0.00 | 0.00 | 92 | 1015.2 |
| 20260506222007 | 49 | 298 | 0.0 | 1.0 | 0.00 | 0.00 | 0.00 | 92 | 1015.3 |
| 20260506221522 | 49 | 298 | 0.0 | 0.0 | 0.00 | 0.00 | 0.00 | 92 | 1015.3 |
| 20260506221008 | 49 | 299 | 0.0 | 1.0 | 0.00 | 0.00 | 0.00 | 93 | 1015.3 |
| 20260506220506 | 49 | 299 | 0.0 | 1.0 | 0.00 | 0.00 | 0.00 | 93 | 1015.4 |
| 20260506220022 | 49 | 299 | 0.0 | 1.0 | 0.00 | 0.00 | 0.00 | 93 | 1015.3 |
| 20260506215507 | 49 | 298 | 0.0 | 1.0 | 0.00 | 0.00 | 0.00 | 93 | 1015.3 |
| 20260506215010 | 49 | 298 | 0.0 | 1.0 | 0.00 | 0.00 | 0.00 | 92 | 1015.4 |
| 20260506214521 | 49 | 299 | 0.0 | 1.0 | 0.00 | 0.00 | 0.00 | 92 | 1015.4 |
| 20260506214008 | 49 | 299 | 0.0 | 1.0 | 0.00 | 0.00 | 0.00 | 92 | 1015.3 |
| 20260506213511 | 49 | 299 | 0.0 | 2.0 | 0.00 | 0.00 | 0.00 | 92 | 1015.4 |
| 20260506213021 | 49 | 299 | 0.0 | 2.0 | 0.00 | 0.00 | 0.00 | 92 | 1015.3 |
| 20260506212510 | 49 | 299 | 0.0 | 2.0 | 0.00 | 0.00 | 0.00 | 92 | 1015.3 |
| 20260506212008 | 49 | 299 | 1.0 | 2.0 | 0.00 | 0.00 | 0.00 | 91 | 1015.3 |
| 20260506211518 | 49 | 298 | 0.0 | 1.0 | 0.00 | 0.00 | 0.00 | 91 | 1015.3 |
| 20260506211005 | 49 | 299 | 0.0 | 1.0 | 0.00 | 0.00 | 0.00 | 91 | 1015.3 |
| 20260506210506 | 49 | 299 | 0.0 | 0.0 | 0.00 | 0.00 | 0.00 | 91 | 1015.3 |
| 20260506210027 | 49 | 299 | 0.0 | 0.0 | 0.00 | 0.00 | 0.00 | 90 | 1015.3 |
| 20260506205506 | 50 | 299 | 0.0 | 0.0 | 0.00 | 0.00 | 0.00 | 90 | 1015.3 |
| 20260506205006 | 50 | 299 | 0.0 | 1.0 | 0.00 | 0.00 | 0.00 | 90 | 1015.3 |
| 20260506204507 | 50 | 299 | 0.0 | 1.0 | 0.00 | 0.00 | 0.00 | 90 | 1015.3 |
| 20260506204009 | 50 | 299 | 0.0 | 1.0 | 0.00 | 0.00 | 0.00 | 90 | 1015.2 |
| 20260506203505 | 50 | 298 | 0.0 | 1.0 | 0.00 | 0.00 | 0.00 | 90 | 1015.2 |
| 20260506203007 | 50 | 298 | 0.0 | 0.0 | 0.00 | 0.00 | 0.00 | 89 | 1015.1 |
| 20260506202502 | 50 | 299 | 0.0 | 0.0 | 0.00 | 0.00 | 0.00 | 89 | 1015.1 |
| 20260506202007 | 50 | 298 | 0.0 | 1.0 | 0.00 | 0.00 | 0.00 | 88 | 1015.1 |
| 20260506201504 | 51 | 299 | 0.0 | 1.0 | 0.00 | 0.00 | 0.00 | 88 | 1015.0 |
| 20260506201004 | 51 | 298 | 0.0 | 1.0 | 0.00 | 0.00 | 0.00 | 88 | 1015.0 |
| 20260506200507 | 51 | 298 | 0.0 | 0.0 | 0.00 | 0.00 | 0.00 | 88 | 1015.0 |
| 20260506200018 | 51 | 299 | 0.0 | 0.0 | 0.00 | 0.00 | 0.00 | 86 | 1015.0 |
| 20260506195503 | 51 | 299 | 0.0 | 1.0 | 0.00 | 0.00 | 0.00 | 86 | 1014.9 |
| 20260506195006 | 52 | 298 | 0.0 | 1.0 | 0.00 | 0.00 | 0.00 | 85 | 1014.9 |
| 20260506194503 | 52 | 299 | 0.0 | 0.0 | 0.00 | 0.00 | 0.00 | 85 | 1014.9 |
| 20260506194003 | 52 | 298 | 0.0 | 1.0 | 0.00 | 0.00 | 0.00 | 85 | 1014.8 |
| 20260506193503 | 53 | 298 | 0.0 | 2.0 | 0.00 | 0.00 | 0.00 | 84 | 1014.6 |
| 20260506193006 | 53 | 299 | 0.0 | 3.0 | 0.00 | 0.00 | 0.00 | 83 | 1014.6 |
| 20260506192503 | 53 | 299 | 0.0 | 3.0 | 0.00 | 0.00 | 0.00 | 83 | 1014.6 |
| 20260506192003 | 53 | 298 | 1.0 | 5.0 | 0.00 | 0.00 | 0.00 | 82 | 1014.5 |
| 20260506191517 | 54 | 298 | 2.0 | 5.0 | 0.00 | 0.00 | 0.00 | 82 | 1014.4 |
| 20260506191007 | 54 | 295 | 1.0 | 5.0 | 0.00 | 0.00 | 0.00 | 81 | 1014.4 |
| 20260506190508 | 54 | 302 | 1.0 | 6.0 | 0.00 | 0.00 | 0.00 | 80 | 1014.3 |
| 20260506190008 | 54 | 304 | 1.0 | 7.0 | 0.00 | 0.00 | 0.00 | 80 | 1014.3 |
| 20260506185504 | 55 | 264 | 2.0 | 10.0 | 0.00 | 0.00 | 0.00 | 79 | 1014.3 |
| 20260506185009 | 55 | 273 | 3.0 | 10.0 | 0.00 | 0.00 | 0.00 | 79 | 1014.2 |
| 20260506184507 | 55 | 301 | 3.0 | 9.0 | 0.00 | 0.00 | 0.00 | 78 | 1014.2 |
| 20260506184003 | 56 | 291 | 5.0 | 9.0 | 0.00 | 0.00 | 0.00 | 78 | 1014.2 |
| 20260506183508 | 56 | 288 | 1.0 | 10.0 | 0.00 | 0.00 | 0.00 | 77 | 1014.1 |
| 20260506183005 | 56 | 294 | 4.0 | 10.0 | 0.00 | 0.00 | 0.00 | 76 | 1014.1 |
| 20260506182503 | 57 | 274 | 5.0 | 10.0 | 0.00 | 0.00 | 0.00 | 75 | 1014.0 |
| 20260506182005 | 57 | 281 | 4.0 | 10.0 | 0.00 | 0.00 | 0.00 | 75 | 1014.0 |
| 20260506181512 | 57 | 306 | 4.0 | 10.0 | 0.00 | 0.00 | 0.00 | 75 | 1014.0 |
| 20260506181004 | 58 | 282 | 2.0 | 12.0 | 0.00 | 0.00 | 0.00 | 74 | 1013.9 |
| 20260506180506 | 58 | 268 | 2.0 | 12.0 | 0.00 | 0.00 | 0.00 | 73 | 1013.9 |
| 20260506180016 | 58 | 267 | 4.0 | 9.0 | 0.00 | 0.00 | 0.00 | 72 | 1013.8 |
| 20260506175507 | 58 | 302 | 4.0 | 13.0 | 0.00 | 0.00 | 0.00 | 72 | 1013.8 |
| 20260506175003 | 58 | 312 | 6.0 | 13.0 | 0.00 | 0.00 | 0.00 | 71 | 1013.8 |
| 20260506174518 | 58 | 281 | 7.0 | 13.0 | 0.00 | 0.00 | 0.00 | 71 | 1013.8 |
| 20260506174007 | 59 | 246 | 6.0 | 14.0 | 0.00 | 0.00 | 0.00 | 70 | 1013.8 |
| 20260506173508 | 59 | 280 | 4.0 | 14.0 | 0.00 | 0.00 | 0.00 | 70 | 1013.7 |
| 20260506173016 | 58 | 302 | 8.0 | 13.0 | 0.00 | 0.00 | 0.00 | 71 | 1013.8 |
| 20260506172507 | 57 | 316 | 7.0 | 15.0 | 0.00 | 0.00 | 0.00 | 76 | 1013.7 |
| 20260506172007 | 57 | 268 | 5.0 | 15.0 | 0.00 | 0.00 | 0.00 | 76 | 1013.8 |
| 20260506171514 | 57 | 298 | 7.0 | 13.0 | 0.00 | 0.00 | 0.00 | 76 | 1013.7 |
| 20260506171003 | 57 | 283 | 5.0 | 13.0 | 0.00 | 0.00 | 0.00 | 74 | 1013.7 |
| 20260506170508 | 57 | 298 | 5.0 | 13.0 | 0.00 | 0.00 | 0.00 | 75 | 1013.6 |
| 20260506170012 | 57 | 304 | 5.0 | 13.0 | 0.00 | 0.00 | 0.00 | 75 | 1013.5 |
| 20260506165507 | 58 | 311 | 7.0 | 13.0 | 0.00 | 0.00 | 0.00 | 74 | 1013.6 |
| 20260506165007 | 58 | 265 | 7.0 | 12.0 | 0.00 | 0.00 | 0.00 | 74 | 1013.5 |
| 20260506164518 | 58 | 266 | 5.0 | 15.0 | 0.00 | 0.00 | 0.00 | 75 | 1013.5 |
| 20260506164007 | 57 | 297 | 6.0 | 15.0 | 0.00 | 0.00 | 0.00 | 75 | 1013.5 |
| 20260506163507 | 57 | 277 | 7.0 | 14.0 | 0.00 | 0.00 | 0.00 | 74 | 1013.5 |
| 20260506163039 | 57 | 298 | 5.0 | 15.0 | 0.00 | 0.00 | 0.00 | 75 | 1013.5 |
| 20260506162507 | 57 | 319 | 6.0 | 16.0 | 0.00 | 0.00 | 0.00 | 75 | 1013.5 |
| 20260506162010 | 57 | 289 | 6.0 | 16.0 | 0.00 | 0.00 | 0.00 | 76 | 1013.4 |
| 20260506161523 | 58 | 305 | 6.0 | 16.0 | 0.00 | 0.00 | 0.00 | 75 | 1013.3 |
| 20260506161007 | 58 | 275 | 7.0 | 16.0 | 0.00 | 0.00 | 0.00 | 75 | 1013.4 |
| 20260506160509 | 57 | 279 | 9.0 | 16.0 | 0.00 | 0.00 | 0.00 | 76 | 1013.4 |
| 20260506160012 | 57 | 293 | 8.0 | 15.0 | 0.00 | 0.00 | 0.00 | 77 | 1013.4 |
| 20260506155507 | 57 | 265 | 8.0 | 15.0 | 0.00 | 0.00 | 0.00 | 76 | 1013.4 |
| 20260506155005 | 57 | 292 | 6.0 | 15.0 | 0.00 | 0.00 | 0.00 | 77 | 1013.3 |
| 20260506154527 | 58 | 274 | 3.0 | 14.0 | 0.00 | 0.00 | 0.00 | 77 | 1013.3 |
| 20260506154007 | 58 | 277 | 4.0 | 14.0 | 0.00 | 0.00 | 0.00 | 77 | 1013.3 |
| 20260506153505 | 57 | 258 | 4.0 | 14.0 | 0.00 | 0.00 | 0.00 | 78 | 1013.3 |
| 20260506153027 | 57 | 314 | 6.0 | 12.0 | 0.00 | 0.00 | 0.00 | 77 | 1013.3 |
| 20260506152510 | 57 | 279 | 4.0 | 12.0 | 0.00 | 0.00 | 0.00 | 81 | 1013.3 |
| 20260506152011 | 57 | 316 | 4.0 | 11.0 | 0.00 | 0.00 | 0.00 | 84 | 1013.3 |
| 20260506151533 | 56 | 292 | 4.0 | 10.0 | 0.00 | 0.00 | 0.00 | 86 | 1013.3 |
| 20260506151003 | 56 | 319 | 4.0 | 13.0 | 0.00 | 0.00 | 0.00 | 86 | 1013.4 |
| 20260506150509 | 56 | 319 | 5.0 | 16.0 | 0.00 | 0.00 | 0.00 | 83 | 1013.4 |
| 20260506150024 | 57 | 10 | 3.0 | 16.0 | 0.00 | 0.00 | 0.00 | 81 | 1013.4 |
| 20260506145507 | 58 | 333 | 6.0 | 15.0 | 0.00 | 0.00 | 0.00 | 78 | 1013.4 |
| 20260506145007 | 59 | 270 | 6.0 | 14.0 | 0.00 | 0.00 | 0.00 | 72 | 1013.4 |
| 20260506144515 | 59 | 242 | 8.0 | 15.0 | 0.00 | 0.00 | 0.00 | 71 | 1013.3 |
| 20260506144009 | 60 | 283 | 8.0 | 15.0 | 0.00 | 0.00 | 0.00 | 71 | 1013.3 |
| 20260506143507 | 59 | 281 | 8.0 | 14.0 | 0.00 | 0.00 | 0.00 | 73 | 1013.3 |
| 20260506143018 | 58 | 291 | 9.0 | 15.0 | 0.00 | 0.00 | 0.00 | 76 | 1013.3 |
| 20260506142506 | 58 | 296 | 8.0 | 15.0 | 0.00 | 0.00 | 0.00 | 75 | 1013.4 |
| 20260506142006 | 57 | 252 | 8.0 | 17.0 | 0.00 | 0.00 | 0.00 | 77 | 1013.4 |
| 20260506141518 | 58 | 260 | 7.0 | 17.0 | 0.00 | 0.00 | 0.00 | 77 | 1013.4 |
| 20260506141009 | 58 | 305 | 7.0 | 16.0 | 0.00 | 0.00 | 0.00 | 77 | 1013.4 |
| 20260506140508 | 57 | 292 | 7.0 | 16.0 | 0.00 | 0.00 | 0.00 | 79 | 1013.6 |
| 20260506140029 | 57 | 302 | 8.0 | 16.0 | 0.00 | 0.00 | 0.00 | 78 | 1013.5 |
| 20260506135514 | 57 | 298 | 9.0 | 15.0 | 0.00 | 0.00 | 0.00 | 76 | 1013.5 |
| 20260506135009 | 57 | 303 | 6.0 | 15.0 | 0.00 | 0.00 | 0.00 | 77 | 1013.5 |
| 20260506134528 | 57 | 307 | 7.0 | 15.0 | 0.00 | 0.00 | 0.00 | 77 | 1013.5 |
| 20260506134009 | 56 | 250 | 9.0 | 18.0 | 0.00 | 0.00 | 0.00 | 76 | 1013.5 |
| 20260506133509 | 57 | 295 | 8.0 | 21.0 | 0.00 | 0.00 | 0.00 | 77 | 1013.4 |
| 20260506133002 | 57 | 291 | 9.0 | 21.0 | 0.00 | 0.00 | 0.00 | 74 | 1013.4 |
| 20260506132506 | 57 | 295 | 8.0 | 19.0 | 0.00 | 0.01 | 0.00 | 74 | 1013.3 |
| 20260506132003 | 58 | 308 | 8.0 | 19.0 | 0.00 | 0.02 | 0.00 | 73 | 1013.3 |
| 20260506131502 | 58 | 296 | 7.0 | 16.0 | 0.00 | 0.02 | 0.00 | 74 | 1013.2 |
| 20260506131005 | 58 | 254 | 8.0 | 16.0 | 0.00 | 0.02 | 0.00 | 74 | 1013.1 |
| 20260506130505 | 58 | 245 | 7.0 | 17.0 | 0.00 | 0.02 | 0.00 | 74 | 1013.1 |
| 20260506130004 | 58 | 325 | 6.0 | 17.0 | 0.00 | 0.02 | 0.00 | 74 | 1013.1 |
| 20260506125503 | 58 | 288 | 6.0 | 15.0 | 0.00 | 0.02 | 0.00 | 76 | 1013.1 |
| 20260506125004 | 57 | 306 | 6.0 | 15.0 | 0.00 | 0.02 | 0.00 | 75 | 1013.1 |
| 20260506124503 | 57 | 261 | 8.0 | 17.0 | 0.00 | 0.02 | 0.00 | 75 | 1013.1 |
| 20260506124006 | 57 | 311 | 7.0 | 17.0 | 0.00 | 0.02 | 0.00 | 75 | 1013.2 |
| 20260506123505 | 58 | 287 | 7.0 | 17.0 | 0.00 | 0.02 | 0.00 | 73 | 1013.1 |
| 20260506123007 | 58 | 288 | 5.0 | 17.0 | 0.00 | 0.02 | 0.00 | 75 | 1013.1 |
| 20260506122503 | 57 | 266 | 9.0 | 15.0 | 0.00 | 0.02 | 0.00 | 74 | 1013.2 |
| 20260506122002 | 57 | 244 | 9.0 | 16.0 | 0.00 | 0.02 | 0.00 | 75 | 1013.1 |
| 20260506121502 | 57 | 294 | 9.0 | 16.0 | 0.00 | 0.02 | 0.00 | 74 | 1013.1 |
| 20260506121003 | 57 | 272 | 8.0 | 15.0 | 0.00 | 0.02 | 0.00 | 74 | 1013.1 |
| 20260506120504 | 57 | 307 | 7.0 | 14.0 | 0.00 | 0.02 | 0.00 | 73 | 1013.1 |
| 20260506120011 | 57 | 298 | 6.0 | 18.0 | 0.00 | 0.02 | 0.00 | 75 | 1013.1 |
| 20260506115503 | 57 | 273 | 9.0 | 18.0 | 0.00 | 0.02 | 0.00 | 74 | 1013.1 |
| 20260506115003 | 58 | 280 | 11.0 | 16.0 | 0.00 | 0.02 | 0.00 | 74 | 1013.1 |
| 20260506114504 | 58 | 275 | 7.0 | 14.0 | 0.00 | 0.03 | 0.00 | 74 | 1013.1 |
| 20260506114005 | 58 | 291 | 7.0 | 13.0 | 0.00 | 0.03 | 0.00 | 75 | 1013.0 |
| 20260506113503 | 57 | 314 | 5.0 | 14.0 | 0.00 | 0.03 | 0.00 | 74 | 1013.0 |
| 20260506113006 | 57 | 293 | 6.0 | 14.0 | 0.00 | 0.05 | 0.00 | 75 | 1013.0 |
| 20260506112504 | 57 | 292 | 6.0 | 13.0 | 0.00 | 0.07 | 0.00 | 78 | 1013.2 |
| 20260506112006 | 56 | 279 | 4.0 | 12.0 | 0.00 | 0.08 | 0.00 | 79 | 1013.2 |
| 20260506111503 | 56 | 270 | 6.0 | 14.0 | 0.00 | 0.08 | 0.00 | 78 | 1013.2 |
| 20260506111003 | 57 | 275 | 9.0 | 17.0 | 0.00 | 0.08 | 0.00 | 75 | 1013.1 |
| 20260506110503 | 57 | 358 | 6.0 | 17.0 | 0.00 | 0.08 | 0.00 | 74 | 1013.2 |
| 20260506110004 | 57 | 270 | 8.0 | 15.0 | 0.00 | 0.08 | 0.00 | 72 | 1013.1 |
| 20260506105503 | 58 | 296 | 6.0 | 15.0 | 0.00 | 0.08 | 0.00 | 71 | 1013.1 |